• In Netherlands
  • List of Countries
  • For 7 days
  • Water Temperature
  • Satellite Maps
  • Weather Map
  • Weather Widgets
  • user-avatar
    Login

    Hourly Weather Gold Coast

    Today, 21 August, Monday

    Time Temperature Precipitation Wind Pressure Humidity
    00:00 +9°C° 0.1 mm 5 mps 761 mmHg 78%
    01:00 +8°C° 0.1 mm 5 mps 761 mmHg 81%
    02:00 +8°C° 0 mm 4 mps 761 mmHg 82%
    03:00 +8°C° 0 mm 4 mps 761 mmHg 84%
    04:00 +7°C° 0 mm 4 mps 761 mmHg 86%
    05:00 +8°C° 0 mm 4 mps 761 mmHg 85%
    06:00 +8°C° 0 mm 4 mps 761 mmHg 83%
    07:00 +9°C° 0 mm 3 mps 761 mmHg 82%
    08:00 +13°C° 0 mm 3 mps 761 mmHg 71%
    09:00 +17°C° 0 mm 3 mps 761 mmHg 60%
    10:00 +21°C° 0 mm 2 mps 762 mmHg 49%
    11:00 +23°C° 0 mm 2 mps 761 mmHg 46%
    12:00 +23°C° 0 mm 2 mps 761 mmHg 42%
    13:00 +24°C° 0 mm 2 mps 760 mmHg 39%
    14:00 +22°C° 0 mm 3 mps 760 mmHg 44%
    15:00 +22°C° 0 mm 3 mps 760 mmHg 50%
    16:00 +21°C° 0 mm 3 mps 759 mmHg 55%
    17:00 +19°C° 0 mm 4 mps 760 mmHg 63%
    18:00 +18°C° 0 mm 4 mps 760 mmHg 70%
    19:00 +17°C° 0 mm 4 mps 760 mmHg 78%
    20:00 +15°C° 0 mm 4 mps 760 mmHg 79%
    21:00 +15°C° 0 mm 4 mps 760 mmHg 80%
    22:00 +15°C° 0 mm 4 mps 761 mmHg 81%
    23:00 +14°C° 0 mm 4 mps 760 mmHg 83%

    Tomorrow, 22 August, Tuesday

    Time Temperature Precipitation Wind Pressure Humidity
    00:00 +14°C° 0 mm 4 mps 760 mmHg 85%
    01:00 +13°C° 0 mm 4 mps 760 mmHg 87%
    02:00 +13°C° 0 mm 4 mps 760 mmHg 88%
    03:00 +13°C° 0 mm 4 mps 760 mmHg 89%
    04:00 +12°C° 0 mm 4 mps 760 mmHg 90%
    05:00 +13°C° 0 mm 4 mps 760 mmHg 89%
    06:00 +13°C° 0 mm 4 mps 760 mmHg 88%
    07:00 +13°C° 0 mm 4 mps 761 mmHg 87%
    08:00 +16°C° 0 mm 5 mps 760 mmHg 77%
    09:00 +19°C° 0 mm 5 mps 760 mmHg 67%
    10:00 +22°C° 0 mm 5 mps 760 mmHg 57%
    11:00 +23°C° 0 mm 5 mps 760 mmHg 50%
    12:00 +26°C° 0 mm 5 mps 759 mmHg 43%
    13:00 +28°C° 0 mm 5 mps 758 mmHg 35%
    14:00 +27°C° 0 mm 6 mps 758 mmHg 40%
    15:00 +26°C° 0 mm 6 mps 758 mmHg 45%
    16:00 +24°C° 0 mm 6 mps 758 mmHg 49%
    17:00 +22°C° 0.2 mm 6 mps 758 mmHg 60%
    18:00 +20°C° 0.2 mm 6 mps 759 mmHg 71%
    19:00 +19°C° 0.2 mm 6 mps 759 mmHg 82%
    20:00 +17°C° 0.4 mm 6 mps 759 mmHg 83%
    21:00 +16°C° 0.4 mm 6 mps 760 mmHg 84%
    22:00 +16°C° 0.4 mm 6 mps 760 mmHg 86%
    23:00 +15°C° 0.1 mm 5 mps 760 mmHg 85%

    Day after tomorrow, 23 August, Wednesday

    Time Temperature Precipitation Wind Pressure Humidity
    00:00 +14°C° 0.1 mm 5 mps 760 mmHg 83%
    01:00 +13°C° 0.1 mm 4 mps 760 mmHg 82%
    02:00 +12°C° 0 mm 4 mps 760 mmHg 81%
    03:00 +12°C° 0 mm 3 mps 760 mmHg 80%
    04:00 +11°C° 0 mm 3 mps 760 mmHg 79%
    05:00 +12°C° 0 mm 3 mps 760 mmHg 78%
    06:00 +13°C° 0 mm 2 mps 761 mmHg 77%
    07:00 +13°C° 0 mm 2 mps 761 mmHg 77%
    08:00 +17°C° 0 mm 2 mps 761 mmHg 65%
    09:00 +21°C° 0 mm 1 mps 761 mmHg 54%
    10:00 +25°C° 0 mm 1 mps 761 mmHg 42%
    11:00 +26°C° 0 mm 1 mps 760 mmHg 37%
    12:00 +27°C° 0 mm 2 mps 759 mmHg 31%
    13:00 +29°C° 0 mm 2 mps 758 mmHg 26%
    14:00 +28°C° 0 mm 3 mps 758 mmHg 29%
    15:00 +27°C° 0 mm 3 mps 758 mmHg 32%
    16:00 +27°C° 0 mm 4 mps 757 mmHg 36%
    17:00 +24°C° 0 mm 3 mps 758 mmHg 48%
    18:00 +20°C° 0 mm 3 mps 758 mmHg 60%
    19:00 +18°C° 0 mm 2 mps 759 mmHg 71%
    20:00 +17°C° 0 mm 2 mps 759 mmHg 75%
    21:00 +16°C° 0 mm 2 mps 759 mmHg 79%
    22:00 +16°C° 0 mm 2 mps 759 mmHg 83%
    23:00 +15°C° 0 mm 2 mps 759 mmHg 79%

    24 August, Thursday

    Time Temperature Precipitation Wind Pressure Humidity
    00:00 +15°C° 0 mm 2 mps 758 mmHg 75%
    01:00 +15°C° 0 mm 2 mps 758 mmHg 72%
    02:00 +14°C° 0 mm 2 mps 758 mmHg 66%
    03:00 +14°C° 0 mm 2 mps 758 mmHg 60%
    04:00 +14°C° 0 mm 2 mps 757 mmHg 54%
    05:00 +14°C° 0 mm 2 mps 758 mmHg 54%
    06:00 +14°C° 0 mm 2 mps 758 mmHg 53%
    07:00 +15°C° 0 mm 2 mps 759 mmHg 53%
    08:00 +18°C° 0 mm 2 mps 759 mmHg 45%
    09:00 +21°C° 0 mm 2 mps 759 mmHg 37%
    10:00 +25°C° 0 mm 2 mps 758 mmHg 30%
    11:00 +26°C° 0 mm 2 mps 758 mmHg 28%
    12:00 +27°C° 0 mm 2 mps 757 mmHg 26%
    13:00 +29°C° 0 mm 3 mps 756 mmHg 24%
    14:00 +28°C° 0 mm 3 mps 756 mmHg 26%
    15:00 +27°C° 0 mm 4 mps 756 mmHg 29%
    16:00 +26°C° 0 mm 4 mps 755 mmHg 31%
    17:00 +22°C° 0 mm 3 mps 756 mmHg 40%
    18:00 +19°C° 0 mm 3 mps 757 mmHg 50%
    19:00 +17°C° 0 mm 2 mps 757 mmHg 59%
    20:00 +16°C° 0.1 mm 2 mps 758 mmHg 64%
    21:00 +15°C° 0.1 mm 2 mps 758 mmHg 70%
    22:00 +14°C° 0.1 mm 2 mps 758 mmHg 76%
    23:00 +13°C° 0.1 mm 3 mps 758 mmHg 76%

    25 August, Friday

    Time Temperature Precipitation Wind Pressure Humidity
    00:00 +12°C° 0.1 mm 3 mps 758 mmHg 77%
    01:00 +12°C° 0.1 mm 3 mps 758 mmHg 78%
    02:00 +11°C° 0 mm 3 mps 758 mmHg 81%
    03:00 +11°C° 0 mm 3 mps 758 mmHg 83%
    04:00 +11°C° 0 mm 4 mps 758 mmHg 85%
    05:00 +11°C° 0 mm 4 mps 758 mmHg 82%
    06:00 +11°C° 0 mm 4 mps 759 mmHg 80%
    07:00 +11°C° 0 mm 4 mps 759 mmHg 77%
    08:00 +14°C° 0 mm 4 mps 759 mmHg 64%
    09:00 +18°C° 0 mm 3 mps 759 mmHg 52%
    10:00 +20°C° 0 mm 3 mps 759 mmHg 40%
    11:00 +21°C° 0 mm 3 mps 759 mmHg 34%
    12:00 +24°C° 0 mm 3 mps 758 mmHg 29%
    13:00 +25°C° 0 mm 3 mps 757 mmHg 24%
    14:00 +23°C° 0 mm 4 mps 757 mmHg 26%
    15:00 +23°C° 0 mm 5 mps 757 mmHg 28%
    16:00 +22°C° 0 mm 5 mps 757 mmHg 29%
    17:00 +20°C° 0 mm 5 mps 758 mmHg 43%
    18:00 +16°C° 0 mm 5 mps 759 mmHg 56%
    19:00 +14°C° 0 mm 5 mps 759 mmHg 69%
    20:00 +13°C° 0 mm 5 mps 760 mmHg 74%
    21:00 +12°C° 0 mm 4 mps 760 mmHg 78%
    22:00 +12°C° 0 mm 4 mps 761 mmHg 82%
    23:00 +11°C° 0 mm 4 mps 761 mmHg 81%

    26 August, Saturday

    Time Temperature Precipitation Wind Pressure Humidity
    00:00 +11°C° 0 mm 4 mps 761 mmHg 81%
    01:00 +10°C° 0 mm 3 mps 761 mmHg 80%
    02:00 +10°C° 0 mm 3 mps 761 mmHg 79%
    03:00 +9°C° 0 mm 3 mps 761 mmHg 79%
    04:00 +9°C° 0 mm 3 mps 761 mmHg 78%
    05:00 +9°C° 0 mm 3 mps 761 mmHg 75%
    06:00 +10°C° 0 mm 3 mps 762 mmHg 72%
    07:00 +10°C° 0 mm 3 mps 762 mmHg 69%
    08:00 +14°C° 0 mm 2 mps 762 mmHg 58%
    09:00 +17°C° 0 mm 2 mps 762 mmHg 47%
    10:00 +21°C° 0 mm 2 mps 761 mmHg 35%
    11:00 +23°C° 0 mm 2 mps 761 mmHg 32%
    12:00 +24°C° 0 mm 2 mps 760 mmHg 29%
    13:00 +25°C° 0 mm 2 mps 760 mmHg 26%
    14:00 +25°C° 0 mm 2 mps 759 mmHg 27%
    15:00 +24°C° 0 mm 3 mps 759 mmHg 29%
    16:00 +22°C° 0 mm 3 mps 759 mmHg 30%
    17:00 +20°C° 0 mm 3 mps 760 mmHg 42%
    18:00 +17°C° 0 mm 3 mps 760 mmHg 54%
    19:00 +15°C° 0 mm 2 mps 761 mmHg 67%
    20:00 +14°C° 0 mm 2 mps 761 mmHg 72%
    21:00 +13°C° 0 mm 1 mps 761 mmHg 76%
    22:00 +13°C° 0 mm 1 mps 761 mmHg 81%
    23:00 +12°C° 0 mm 1 mps 761 mmHg 83%
    Show more